Wind_Speed
30 30 29 30 31 32 32 33 33 33 33 33 33 33 33 34 34 34 34 34 33 34 34 34 34 35 35 36 36 37 37 38 38 38 38 39 39 40 40 41 41 42 43
29 29 29 29 30 30 31 31 32 32 32 32 32 33 34 34 34 35 35 35 35 35 35 34 34 35 36 36 37 37 38 38 39 39 40 40 40 41 41 41 42 42 43
28 28 28 29 29 30 30 31 31 32 32 32 32 33 34 35 36 35 35 35 35 36 36 36 36 36 36 37 38 38 39 39 40 40 41 41 41 41 42 43 44 44 45
28 29 29 29 29 29 30 31 31 32 33 34 34 34 35 36 37 37 36 36 36 36 38 37 37 37 38 39 39 39 40 40 40 41 42 42 42 42 42 43 44 44 44
27 27 28 29 29 30 30 31 31 33 34 35 35 35 36 37 37 37 37 37 37 37 38 39 40 39 39 39 40 41 41 41 41 41 41 42 42 43 43 42 42 43 43
26 27 27 28 29 30 31 31 32 33 34 34 36 36 36 37 37 36 37 38 38 39 40 40 40 40 41 41 42 42 42 42 42 42 41 42 42 42 42 42 42 42 42
26 27 28 28 29 30 31 32 33 33 34 34 35 36 36 38 38 38 38 39 40 40 41 42 42 43 43 43 42 42 42 41 41 41 41 42 42 42 42 42 42 41 42
26 27 28 29 30 31 31 32 33 34 34 35 36 37 37 38 39 40 40 40 42 42 42 43 43 43 44 43 42 42 41 41 41 41 41 41 42 42 42 42 42 41 41
27 28 28 29 30 31 32 32 33 34 35 36 37 37 38 38 39 40 41 41 43 44 45 45 44 43 43 43 43 42 42 42 41 41 41 42 42 42 42 42 42 42 42
27 29 30 30 31 32 32 32 33 34 35 35 36 38 39 40 40 40 41 42 43 44 44 44 44 43 42 42 42 42 42 41 41 41 41 42 42 43 43 43 43 43 43
27 28 30 30 31 32 32 32 33 33 34 34 36 38 39 41 42 42 43 44 44 43 43 42 42 42 43 42 42 42 42 41 41 41 41 42 42 43 43 43 43 44 44
28 29 29 30 31 32 33 34 34 34 35 36 37 38 39 41 42 43 44 44 44 43 42 42 43 43 43 43 43 43 43 43 42 43 43 44 44 44 44 44 44 44 45
27 28 30 31 32 33 33 34 35 36 36 36 37 38 39 40 41 42 43 44 44 44 44 43 43 43 43 43 44 44 44 44 44 45 45 45 45 45 45 45 46 46 46
27 28 29 30 31 32 33 33 34 35 36 36 36 37 38 39 40 42 43 43 43 43 43 43 43 43 43 44 44 44 44 45 46 46 46 46 45 45 45 45 46 47 47
27 28 29 30 31 32 32 33 34 34 35 37 37 38 38 39 40 41 42 42 42 42 42 42 42 42 42 43 43 44 44 45 46 46 46 46 46 46 46 46 46 47 47
28 29 30 31 31 32 33 34 35 35 36 37 38 39 39 40 40 40 41 41 41 41 41 41 41 41 42 43 43 44 45 46 46 46 46 45 46 46 46 46 46 47 47
30 31 32 32 33 34 34 35 36 37 37 38 38 39 40 40 40 40 40 40 39 40 40 40 41 41 42 43 43 44 44 44 44 44 45 45 45 45 45 45 46 46 47
32 32 33 34 34 35 36 36 37 37 38 38 38 39 39 39 40 40 40 39 39 40 40 41 41 42 43 43 43 43 43 43 44 44 44 44 44 44 44 45 45 46 47
34 34 35 36 36 37 37 37 38 38 38 38 38 39 39 39 39 39 39 39 39 40 40 41 42 42 42 43 42 42 42 42 42 42 43 43 43 44 45 45 45 45 46
36 36 37 37 38 38 38 38 38 39 39 39 39 39 39 38 38 38 38 39 39 39 40 40 40 41 41 41 41 41 41 40 40 41 42 42 43 43 44 44 44 44 44
38 38 38 38 39 39 40 39 40 40 40 40 39 39 38 38 39 38 38 38 38 38 38 39 39 39 39 40 40 40 40 40 40 40 40 41 41 42 42 42 42 43 43
39 39 40 40 40 41 41 41 41 41 40 39 38 38 38 37 37 37 37 38 38 38 38 38 38 38 39 39 39 39 39 39 39 39 40 40 40 40 40 40 41 42 42
40 40 41 41 41 41 42 41 41 40 39 38 38 38 37 37 37 37 37 37 37 38 38 38 38 38 39 39 39 39 39 39 39 39 39 39 40 39 39 39 40 40 41
40 41 41 41 41 41 41 40 40 39 38 38 38 38 37 37 36 36 37 37 37 38 38 38 38 38 39 39 38 38 38 38 38 39 39 39 39 39 39 39 40 39 39
40 41 41 41 41 40 39 39 39 39 38 38 38 37 37 37 37 37 37 37 37 37 37 37 37 37 37 37 37 38 37 38 38 38 38 38 39 39 39 39 39 38 38
40 40 40 40 39 38 38 38 39 39 38 37 37 36 37 37 37 36 36 36 37 37 37 37 37 36 36 36 37 37 37 38 38 37 37 37 38 38 37 37 37 37 37
Wind_Direction
244 246 247 248 249 250 251 252 253 253 254 255 256 258 259 260 261 262 265 266 269 271 272 271 273 274 276 277 277 278 280 281 280 278 278 279 279 280 279 280 279 277 275
245 247 248 250 250 252 252 252 252 253 254 256 257 259 260 261 262 263 265 266 269 270 272 271 273 275 277 277 278 279 281 281 280 279 279 278 279 280 280 280 280 278 277
246 247 249 251 252 253 253 253 253 254 255 256 258 260 262 263 264 266 267 269 269 270 271 273 274 275 276 278 279 280 281 281 281 280 280 279 278 279 280 281 281 279 278
248 249 251 251 252 253 253 254 255 255 256 258 259 261 263 264 265 266 267 269 269 271 273 274 275 276 276 277 279 280 281 281 281 281 281 281 280 280 281 281 281 280 279
247 249 251 253 254 254 254 254 256 257 258 259 261 263 264 264 266 267 268 268 269 272 274 274 275 276 277 278 280 281 281 281 282 282 283 283 282 282 282 282 282 281 280
248 249 252 254 255 256 256 256 257 259 260 261 262 264 264 264 266 268 269 269 270 272 274 275 275 275 277 278 280 281 281 281 281 282 283 283 283 284 284 283 281 281 279
251 252 254 255 256 258 259 260 260 261 262 263 263 265 265 266 266 268 270 272 272 273 273 276 277 276 276 277 279 280 280 280 281 282 283 284 284 285 284 283 282 281 280
255 255 256 257 258 259 261 262 263 263 263 264 266 267 267 268 268 269 270 272 272 272 274 276 277 277 276 276 277 278 278 279 280 281 282 284 284 284 284 283 283 282 280
257 258 259 260 261 262 264 265 265 265 266 268 269 270 270 271 270 271 272 273 274 275 275 276 277 277 278 277 277 277 277 278 280 281 282 283 284 284 284 284 284 283 282
261 261 261 262 263 265 266 267 268 268 269 270 271 272 273 273 273 273 274 276 278 278 278 278 277 277 278 278 277 278 278 278 280 281 283 284 285 285 285 285 284 284 283
263 262 263 264 265 267 268 269 271 271 271 271 273 273 274 274 274 275 276 278 279 279 279 279 278 278 279 279 278 279 278 279 280 281 283 284 285 285 285 285 284 284 283
264 265 266 266 267 268 269 270 271 272 271 272 273 274 275 276 276 277 278 279 279 280 280 280 279 278 278 277 278 279 279 280 280 282 283 284 284 284 284 284 284 284 283
268 269 269 270 270 270 271 271 272 272 273 274 275 275 276 277 278 279 279 279 279 279 281 280 279 278 277 277 278 279 279 280 282 283 283 284 285 285 284 284 284 284 284
272 272 271 272 272 273 273 274 274 274 275 275 276 277 278 279 280 280 281 280 279 279 279 279 278 278 277 278 278 279 280 281 282 282 283 284 285 285 285 285 285 284 284
274 274 274 274 275 275 275 276 276 277 277 277 277 278 280 280 281 281 281 280 278 278 278 277 277 278 278 279 280 280 280 281 282 283 283 284 284 284 285 285 285 284 284
275 276 276 277 277 277 278 278 278 278 279 279 278 279 280 282 282 282 281 281 279 278 278 278 278 278 279 280 281 282 282 282 283 283 283 284 284 284 284 285 284 284 283
276 277 278 279 279 279 280 279 280 280 280 280 280 280 281 283 283 282 282 281 280 279 278 278 279 280 281 282 282 283 283 283 283 283 283 283 284 284 284 284 284 284 284
280 280 280 280 280 280 280 281 281 281 281 281 282 282 282 283 283 283 282 281 280 280 280 279 280 281 281 282 282 283 284 284 284 284 284 285 285 285 285 285 284 285 285
279 280 280 281 281 281 282 282 282 282 282 282 282 282 283 283 282 282 281 281 281 281 281 281 281 282 282 282 284 285 285 285 286 286 286 286 286 285 285 285 285 285 286
280 281 280 281 282 282 283 283 283 282 282 283 283 283 283 282 282 283 282 282 282 282 282 281 281 282 282 283 284 285 285 287 287 288 288 288 288 287 287 287 286 286 286
280 280 281 281 282 283 283 283 283 283 283 284 284 284 283 283 283 284 283 283 283 282 282 282 282 283 283 284 285 285 285 286 287 288 289 289 289 289 288 288 288 288 288
281 281 281 282 283 284 284 284 284 283 283 284 284 284 283 283 283 284 284 284 284 284 284 284 283 283 284 285 286 286 286 287 288 289 290 290 291 291 291 291 291 291 291
283 282 283 283 283 284 284 284 284 284 283 283 284 283 283 282 283 284 285 285 285 285 285 285 285 285 285 286 286 287 288 289 290 291 291 292 293 293 293 293 293 293 292
284 283 284 284 284 284 284 284 284 283 283 283 283 282 282 282 283 284 285 286 286 286 286 286 285 285 285 286 286 287 288 289 290 291 292 293 294 294 294 294 294 293 292
285 285 285 285 285 285 284 284 283 283 283 283 282 282 282 282 283 285 286 287 287 287 286 286 286 286 287 287 287 288 288 289 289 291 292 293 294 294 294 294 294 293 293
286 286 285 285 285 285 284 284 284 284 283 282 282 282 283 283 283 285 286 286 286 286 286 286 286 286 287 287 287 288 289 290 290 291 292 293 294 294 293 293 292 292 293
Height
5735 5738 5741 5743 5746 5748 5750 5752 5754 5755 5757 5758 5760 5762 5763 5764 5765 5766 5766 5767 5767 5767 5767 5767 5767 5767 5766 5766 5765 5764 5763 5762 5760 5759 5759 5758 5757 5756 5754 5753 5752 5752 5751
5730 5733 5735 5738 5739 5742 5743 5745 5746 5748 5749 5751 5753 5754 5755 5756 5757 5758 5758 5759 5759 5759 5759 5759 5758 5758 5758 5757 5756 5755 5754 5752 5751 5750 5749 5749 5748 5746 5745 5743 5742 5741 5740
5725 5728 5730 5732 5733 5735 5737 5738 5740 5741 5742 5744 5745 5746 5747 5748 5749 5749 5750 5750 5750 5750 5750 5750 5750 5749 5749 5748 5747 5746 5745 5743 5742 5740 5739 5738 5738 5737 5736 5733 5732 5730 5729
5720 5722 5724 5726 5727 5729 5730 5731 5733 5734 5736 5737 5738 5739 5740 5740 5741 5741 5741 5741 5741 5741 5741 5741 5740 5740 5739 5738 5737 5736 5735 5734 5732 5730 5729 5728 5726 5726 5726 5724 5721 5719 5718
5714 5716 5718 5720 5721 5722 5723 5724 5725 5727 5728 5729 5731 5731 5732 5732 5732 5732 5733 5733 5732 5732 5732 5732 5731 5731 5730 5729 5728 5726 5725 5724 5722 5721 5719 5717 5715 5714 5713 5713 5711 5709 5707
5709 5711 5712 5714 5715 5716 5716 5717 5718 5719 5720 5721 5722 5722 5723 5723 5723 5723 5724 5723 5723 5723 5722 5722 5721 5720 5720 5719 5717 5716 5715 5713 5712 5710 5708 5707 5705 5703 5702 5701 5700 5699 5697
5704 5706 5707 5708 5708 5709 5710 5711 5711 5712 5712 5713 5713 5714 5714 5714 5714 5715 5715 5714 5714 5713 5712 5712 5711 5710 5709 5708 5707 5706 5705 5703 5701 5699 5698 5696 5694 5692 5691 5689 5689 5688 5687
5699 5699 5700 5701 5702 5703 5703 5703 5704 5704 5704 5705 5705 5705 5705 5705 5705 5705 5705 5704 5704 5703 5702 5701 5700 5699 5698 5697 5696 5695 5694 5692 5691 5689 5687 5685 5683 5681 5680 5678 5677 5676 5676
5693 5694 5694 5695 5695 5696 5696 5696 5696 5696 5696 5696 5697 5696 5696 5696 5696 5696 5695 5695 5694 5693 5692 5690 5689 5688 5687 5686 5685 5684 5683 5682 5680 5678 5677 5675 5673 5671 5669 5667 5665 5664 5663
5687 5687 5688 5688 5688 5688 5689 5689 5688 5688 5688 5688 5688 5687 5687 5687 5686 5686 5685 5685 5684 5683 5682 5680 5679 5678 5677 5676 5675 5674 5672 5671 5669 5668 5666 5664 5661 5659 5657 5656 5653 5651 5650
5680 5680 5681 5681 5681 5681 5681 5681 5680 5680 5680 5679 5679 5678 5678 5677 5677 5676 5675 5674 5673 5672 5671 5669 5668 5667 5666 5665 5664 5663 5661 5660 5658 5656 5654 5652 5650 5648 5646 5644 5642 5640 5638
5673 5673 5673 5674 5673 5673 5673 5673 5672 5672 5671 5671 5670 5669 5669 5668 5667 5666 5665 5664 5663 5661 5660 5659 5657 5656 5655 5654 5653 5652 5650 5648 5647 5645 5643 5641 5639 5637 5634 5632 5630 5628 5626
5666 5666 5666 5666 5665 5665 5664 5664 5664 5663 5663 5662 5661 5660 5659 5658 5657 5656 5654 5653 5652 5650 5649 5647 5646 5645 5644 5643 5641 5640 5638 5637 5635 5633 5631 5629 5626 5624 5622 5620 5618 5616 5614
5659 5658 5658 5657 5657 5656 5656 5655 5655 5654 5653 5652 5651 5650 5649 5648 5646 5645 5643 5642 5640 5639 5637 5636 5635 5633 5632 5631 5629 5628 5626 5624 5622 5620 5618 5616 5614 5612 5610 5608 5605 5603 5601
5651 5651 5650 5649 5649 5648 5647 5646 5645 5644 5644 5643 5641 5640 5639 5637 5635 5634 5632 5630 5629 5627 5626 5624 5623 5621 5620 5619 5617 5615 5614 5612 5610 5607 5605 5603 5601 5598 5596 5594 5592 5590 5588
5644 5643 5642 5641 5640 5639 5639 5637 5636 5635 5634 5632 5631 5629 5628 5626 5624 5622 5621 5619 5617 5616 5614 5613 5611 5610 5608 5606 5604 5603 5601 5599 5596 5594 5592 5589 5587 5585 5583 5580 5578 5576 5574
5636 5635 5634 5633 5631 5630 5629 5628 5627 5625 5623 5622 5620 5619 5617 5615 5613 5611 5609 5607 5606 5604 5602 5601 5599 5598 5596 5594 5592 5589 5588 5585 5583 5581 5578 5576 5573 5571 5569 5567 5564 5562 5559
5627 5626 5625 5623 5622 5621 5619 5618 5616 5614 5613 5611 5609 5607 5606 5604 5602 5600 5598 5596 5594 5593 5591 5589 5587 5585 5583 5581 5579 5577 5575 5572 5570 5567 5565 5563 5560 5558 5556 5554 5551 5548 5546
5618 5616 5615 5614 5612 5610 5609 5607 5605 5603 5602 5600 5598 5596 5594 5593 5591 5589 5587 5585 5583 5581 5579 5577 5575 5573 5571 5569 5567 5565 5563 5560 5557 5555 5552 5550 5547 5545 5543 5541 5538 5536 5533
5607 5606 5605 5603 5601 5599 5597 5596 5594 5592 5590 5589 5587 5585 5583 5581 5579 5577 5575 5573 5571 5569 5567 5565 5563 5562 5560 5557 5555 5553 5551 5549 5546 5544 5541 5538 5535 5532 5529 5527 5525 5522 5520
5597 5595 5594 5592 5590 5588 5586 5585 5583 5581 5579 5577 5575 5573 5571 5569 5567 5565 5564 5562 5560 5558 5556 5554 5552 5550 5548 5546 5543 5541 5539 5537 5535 5532 5529 5526 5523 5520 5517 5514 5512 5509 5507
5586 5584 5582 5581 5579 5577 5574 5573 5571 5569 5567 5566 5564 5562 5560 5558 5556 5554 5552 5550 5548 5546 5544 5542 5540 5538 5536 5534 5531 5529 5527 5525 5523 5521 5518 5515 5512 5508 5505 5502 5500 5497 5494
5575 5573 5571 5570 5568 5565 5563 5561 5559 5557 5556 5554 5552 5550 5548 5546 5544 5542 5540 5538 5536 5535 5533 5531 5529 5527 5524 5522 5520 5518 5516 5514 5512 5509 5506 5503 5500 5497 5494 5491 5488 5485 5482
5563 5561 5559 5558 5556 5554 5551 5549 5547 5545 5544 5543 5541 5539 5537 5535 5534 5532 5530 5528 5526 5524 5522 5520 5518 5516 5513 5511 5509 5507 5505 5503 5501 5498 5495 5493 5490 5487 5483 5480 5477 5473 5470
5552 5550 5548 5546 5544 5542 5540 5537 5536 5534 5533 5531 5530 5528 5526 5524 5523 5521 5519 5517 5515 5512 5511 5509 5507 5505 5503 5501 5498 5496 5495 5492 5490 5488 5485 5482 5479 5476 5473 5469 5466 5463 5459
5540 5538 5536 5535 5533 5531 5529 5527 5524 5523 5521 5520 5518 5517 5515 5513 5512 5510 5508 5506 5504 5502 5500 5498 5496 5494 5492 5490 5488 5486 5484 5482 5480 5477 5475 5472 5468 5465 5462 5459 5455 5452 5448